Theta_e
321 323 323 324 325 326 326 325 325 325 325 325 326 326 325 324 325 325 325 324 322 321 321 320 320 320 319 318 318 317 316 315 309 297 297 294 293 293 292 293 294 291 291
310 318 320 323 324 325 325 325 325 325 326 326 326 325 325 324 324 324 324 323 321 319 319 318 318 317 317 317 316 315 314 312 308 303 293 291 291 291 292 291 292 292 291
302 306 311 318 321 323 324 325 325 325 325 325 325 324 324 323 323 323 324 322 320 320 318 317 317 316 314 314 313 311 307 303 303 299 290 290 289 290 289 289 289 289 290
300 303 305 309 316 320 322 323 323 324 324 323 323 323 323 322 321 320 321 319 319 318 317 317 316 314 314 310 306 305 301 299 297 292 288 288 289 288 288 287 286 286 286
298 301 305 308 311 315 316 319 321 320 321 321 320 320 319 317 316 314 317 317 316 313 309 310 308 303 300 305 305 300 299 292 290 288 287 288 286 286 286 286 286 285 281
298 300 303 306 307 308 310 311 311 312 313 313 311 313 312 308 303 304 311 313 309 307 300 296 295 291 295 296 297 298 298 294 289 289 287 287 287 287 286 286 283 282 279
298 299 300 302 303 305 305 305 305 309 308 310 312 311 309 306 300 301 300 308 304 302 297 295 293 292 293 293 293 293 292 296 296 293 288 287 286 286 284 284 284 283 281
295 296 297 298 300 299 300 300 301 302 305 303 303 306 305 301 298 298 296 302 301 299 297 295 293 291 291 291 288 287 286 286 287 287 286 285 286 285 285 285 282 281 280
291 293 293 294 296 296 296 297 297 296 295 295 294 295 296 293 296 296 297 294 293 291 292 293 293 291 290 290 287 285 285 286 290 290 289 289 289 287 285 281 274 272 270
290 291 292 292 294 296 296 294 291 293 291 291 290 292 290 290 294 295 296 292 289 289 288 288 288 290 290 290 286 285 283 283 284 284 284 284 283 284 284 281 277 269 268
288 290 289 289 291 294 292 289 289 289 288 289 288 288 289 290 292 294 294 293 291 289 288 287 288 291 290 289 288 285 284 283 283 280 280 279 278 278 278 279 278 275 270
287 288 289 287 289 288 289 287 288 289 289 288 287 286 286 287 290 293 294 293 293 289 287 287 288 290 290 288 286 287 287 284 280 279 277 276 277 277 278 279 278 278 275
286 287 287 287 286 287 288 287 288 288 290 288 288 287 286 286 288 292 292 292 291 288 287 289 290 290 289 288 288 288 284 281 279 277 276 277 277 278 275 271 270 268 268
285 287 288 287 286 286 286 287 289 289 289 288 288 288 287 287 288 289 289 288 287 287 288 288 288 287 287 287 285 283 281 281 279 277 276 276 272 270 268 269 267 266 265
285 286 287 287 286 286 286 288 288 290 291 289 289 289 287 286 288 289 288 286 287 287 285 284 282 281 279 278 278 278 278 278 276 275 274 272 272 271 268 265 264 261 263
283 285 287 287 286 286 286 287 290 291 291 292 292 290 288 291 289 289 289 289 288 287 283 281 279 279 278 278 276 275 275 274 274 272 271 271 270 269 267 264 264 261 262
282 284 286 287 287 286 286 287 286 287 291 291 291 290 290 289 289 289 289 289 288 286 282 281 280 279 278 277 276 275 272 272 269 271 270 269 268 267 267 264 265 263 262
282 284 285 286 288 287 287 288 288 286 286 286 289 289 289 289 289 289 289 288 284 284 282 281 280 280 278 276 274 272 270 269 269 268 267 267 267 266 265 265 263 259 258
280 282 284 286 288 288 288 288 287 287 287 286 285 288 287 289 289 289 289 285 283 282 282 282 281 280 278 275 273 272 271 270 268 266 265 265 266 266 263 261 261 259 257
279 280 283 285 286 287 288 287 286 287 287 286 286 285 286 286 285 285 285 285 284 283 282 280 279 277 275 273 271 270 268 267 266 265 265 265 264 263 261 258 255 253 253
277 278 280 283 285 287 287 287 287 286 286 286 286 286 287 285 285 284 284 284 283 281 279 277 276 274 273 271 269 268 268 267 266 266 265 263 262 259 256 257 252 251 251
273 275 277 281 284 286 287 287 286 286 286 286 286 285 288 286 285 284 282 280 279 279 277 275 273 272 271 270 269 268 267 266 266 265 264 261 259 256 254 254 252 251 250
272 273 275 278 282 285 286 286 285 285 285 286 286 285 285 285 284 281 279 276 274 273 273 273 271 269 270 269 270 269 267 266 265 264 262 260 258 256 253 251 250 249 250
269 271 273 277 280 283 286 286 286 285 285 285 285 285 285 283 280 277 274 273 272 271 271 270 270 268 267 267 266 266 265 265 264 263 261 260 258 255 252 250 251 249 250
266 268 271 274 278 282 285 286 286 285 285 284 284 284 283 278 274 271 270 270 269 269 268 267 267 266 266 265 264 263 265 263 261 260 259 259 257 255 255 250 248 247 247
265 267 269 273 277 281 284 285 285 284 282 281 281 277 273 271 270 269 268 268 268 267 266 266 265 265 264 263 262 263 262 263 260 259 257 257 256 253 252 254 249 247 247
Wind_Speed
13 15 17 16 18 17 17 17 16 16 16 16 18 18 18 18 17 16 17 15 15 13 11 12 12 10 8 7 6 6 6 6 5 1 2 2 3 4 3 3 2 1 1
6 7 10 13 14 15 16 17 16 16 17 15 16 16 17 17 17 18 17 15 15 14 12 12 12 7 11 9 7 8 7 5 4 4 2 2 2 2 3 3 1 0 2
7 7 7 9 13 16 17 16 15 15 16 15 15 17 17 17 16 16 16 14 14 13 13 13 12 11 10 6 7 6 4 3 2 3 3 2 2 1 2 2 1 2 2
7 7 9 10 12 13 14 14 13 14 14 13 15 16 16 15 15 14 14 12 13 12 12 12 11 12 11 10 7 6 5 4 4 4 3 3 2 1 2 3 2 1 1
8 8 12 10 8 8 9 11 13 12 13 13 13 13 11 10 9 11 12 12 12 10 7 7 7 8 11 10 7 6 7 4 4 4 3 3 2 2 2 2 2 2 2
8 11 10 8 7 7 8 10 9 9 9 9 9 11 10 6 12 15 13 9 9 10 8 6 5 7 9 10 11 10 10 8 5 4 3 4 4 3 2 3 3 2 0
10 10 8 7 8 8 7 6 7 9 7 10 11 11 10 8 13 14 13 9 9 9 10 10 7 5 9 11 15 15 11 8 5 5 6 5 5 4 5 3 3 3 3
9 9 9 8 10 8 7 7 6 4 8 6 7 8 8 6 13 14 13 9 8 9 11 11 12 10 10 13 12 12 9 8 6 7 7 7 6 6 5 4 5 4 2
11 9 9 8 10 8 8 7 5 5 4 5 5 7 8 6 11 15 12 8 8 8 8 9 11 12 17 20 16 15 13 11 15 20 20 19 16 13 9 6 3 4 2
17 14 10 8 10 10 9 7 4 4 5 6 6 7 7 8 12 15 13 8 9 7 5 6 10 13 20 20 16 15 15 11 12 12 11 11 10 11 12 5 3 4 3
17 17 12 8 10 10 7 5 4 5 5 6 5 5 7 9 11 15 17 10 10 9 8 7 5 21 20 20 18 11 13 13 13 9 8 6 5 6 6 6 6 4 2
16 16 14 8 5 4 6 3 4 7 8 7 8 3 3 4 10 13 14 13 15 11 8 7 10 19 20 20 13 23 25 16 8 8 7 5 6 5 5 5 4 3 3
18 14 13 11 3 3 5 5 4 5 7 7 8 6 5 3 4 15 16 19 17 11 9 14 21 21 22 17 23 24 16 8 8 8 6 6 4 5 5 5 3 4 4
18 13 11 10 5 2 2 2 5 6 5 6 8 7 7 7 7 8 9 10 17 12 19 15 16 15 15 15 13 9 5 6 7 8 7 5 2 2 3 3 2 2 3
17 13 9 7 6 4 3 4 5 5 7 8 8 9 10 10 10 13 14 12 12 16 15 11 9 9 9 8 6 6 6 6 7 6 6 5 5 4 3 2 2 2 3
17 13 10 8 6 3 3 3 6 6 8 8 8 8 4 10 20 21 22 25 29 30 11 11 10 9 10 9 9 7 5 7 6 5 5 4 5 5 4 3 3 2 2
14 16 11 11 8 5 4 4 5 3 10 11 11 12 14 16 24 25 25 28 32 26 10 11 12 11 10 9 9 8 7 5 4 5 6 6 6 6 6 4 3 2 1
16 18 10 12 10 7 6 6 5 6 6 4 10 14 18 23 23 25 27 27 16 9 10 13 12 11 11 10 9 8 7 7 5 6 6 6 6 7 6 5 3 3 2
16 12 11 10 10 9 7 7 7 8 8 6 5 8 16 25 24 26 30 13 14 11 11 11 10 11 11 11 10 9 9 8 7 6 5 5 5 6 5 4 4 4 4
16 22 17 11 10 9 8 8 8 9 9 9 10 9 10 13 14 15 13 10 11 11 11 12 11 10 10 11 10 9 8 8 7 6 6 5 4 5 5 5 4 3 2
12 14 19 14 11 10 9 10 9 9 10 11 11 12 22 14 14 14 12 10 9 10 11 11 11 10 10 10 10 9 9 8 7 7 7 6 5 5 4 4 4 4 3
13 13 14 13 11 11 10 10 9 10 11 12 10 12 29 12 12 13 12 9 10 9 9 12 11 11 11 12 12 11 10 9 8 7 7 6 6 5 4 4 3 2 2
14 15 14 14 12 14 10 10 10 10 11 11 11 12 16 13 12 12 12 11 10 10 9 11 12 11 9 10 10 10 11 10 8 8 8 7 6 5 4 4 4 3 2
16 16 16 14 13 12 11 11 11 13 12 11 12 13 15 13 14 14 12 11 11 11 9 10 10 15 12 11 9 8 8 9 8 8 10 9 7 7 4 4 3 3 3
14 15 15 14 13 13 12 11 11 11 11 10 11 10 10 9 9 9 11 11 12 12 12 10 10 15 15 16 13 13 15 15 11 10 7 8 9 9 5 4 4 3 3
14 15 15 14 13 12 12 10 10 9 9 9 7 7 9 10 10 12 12 13 12 12 13 10 12 16 18 14 15 17 16 16 13 12 7 7 7 5 4 5 6 3 3
Wind_Direction
236 227 227 226 228 230 228 223 216 219 217 214 208 205 206 205 206 210 216 216 210 206 198 205 211 204 208 204 198 201 214 212 209 120 96 85 107 114 111 96 108 89 275
257 239 231 228 226 223 229 227 220 222 222 216 214 211 209 205 203 208 211 210 206 198 198 199 209 202 211 201 198 203 206 196 169 163 136 120 98 103 130 117 136 311 9
264 254 252 233 223 228 227 223 224 225 224 220 212 210 210 208 205 207 208 206 202 202 194 200 205 199 208 196 194 188 165 149 138 129 131 100 118 190 108 87 92 34 299
269 254 251 238 233 231 229 226 218 216 216 212 211 212 209 207 204 199 199 192 190 195 192 198 201 198 200 188 177 169 151 147 129 103 99 122 126 147 96 116 94 127 30
259 259 255 248 229 226 224 216 207 204 212 209 210 214 206 196 191 185 190 187 187 186 176 180 177 177 172 168 161 153 137 121 130 116 111 121 141 152 160 149 96 69 26
264 254 257 262 261 244 238 224 210 205 192 185 191 196 189 191 178 182 184 187 175 172 157 127 118 123 117 124 124 133 150 149 145 132 144 142 153 134 131 126 120 87 24
275 270 265 248 246 238 244 242 225 205 188 191 198 179 192 181 171 178 172 170 165 160 151 148 137 112 114 107 91 89 85 102 122 149 143 146 138 158 140 121 125 144 185
288 273 272 263 261 242 211 225 231 208 192 177 191 198 180 178 168 174 172 155 156 157 159 156 141 139 138 129 112 94 80 70 76 93 103 112 117 135 143 146 137 121 64
298 281 268 258 258 244 235 220 201 198 175 178 170 170 173 172 168 163 145 138 139 145 143 143 143 140 147 138 122 114 103 92 88 100 104 107 112 122 130 112 99 96 4
319 302 283 258 254 250 236 215 193 198 201 168 172 176 171 159 162 161 146 137 130 137 119 121 134 140 146 141 130 135 127 135 128 114 111 97 87 89 88 72 107 109 115
310 303 283 242 237 239 226 175 191 178 162 160 168 160 155 160 165 162 151 150 150 146 146 136 138 144 144 142 140 150 144 144 138 123 115 100 85 83 78 70 69 105 134
309 304 291 271 247 214 207 203 185 184 173 162 148 138 110 155 158 160 155 139 149 140 138 130 139 143 142 143 138 137 139 130 126 120 117 112 112 110 105 100 98 88 58
313 317 309 292 225 192 206 197 196 190 186 170 163 164 160 151 148 152 145 143 143 130 139 142 139 137 135 128 137 140 133 133 132 123 128 128 147 137 123 87 67 71 63
318 314 317 299 278 192 185 214 214 190 193 182 167 175 169 160 156 148 143 132 124 119 129 126 131 127 122 127 135 129 116 137 139 131 135 142 128 105 100 95 79 44 78
321 314 309 283 271 249 198 210 225 236 206 195 192 168 169 184 178 156 150 147 138 136 126 124 128 126 125 121 115 114 119 121 127 128 141 137 131 111 81 69 80 62 101
319 318 314 293 265 243 243 230 245 234 219 211 181 172 169 172 155 154 157 148 142 144 140 144 144 145 144 143 141 133 125 128 138 127 131 133 138 125 110 83 83 87 101
312 308 312 297 267 250 224 223 238 228 207 190 175 167 173 168 161 159 158 151 152 150 151 156 153 154 149 150 150 154 147 138 110 134 140 140 139 124 118 114 112 108 85
310 302 294 290 273 246 228 214 218 207 196 190 192 179 174 167 163 162 157 148 159 170 157 156 156 155 152 152 152 148 135 136 138 142 140 141 144 133 131 127 116 128 127
310 303 296 289 273 245 235 214 205 200 196 174 155 189 176 166 165 166 164 165 165 164 161 157 155 153 153 150 149 147 148 150 147 140 138 139 141 132 121 116 114 118 129
310 306 299 289 283 259 234 224 214 203 196 183 181 182 169 159 167 174 180 178 174 164 166 152 151 149 147 146 141 140 137 142 142 138 139 134 126 124 129 122 123 134 141
307 302 297 287 276 270 251 229 217 211 202 196 193 179 179 179 178 178 177 178 167 163 160 148 145 144 142 138 136 140 146 147 146 142 139 131 137 131 121 119 127 128 135
296 293 291 284 283 271 245 230 216 217 212 204 192 182 181 189 182 174 168 163 157 161 158 145 143 150 149 150 145 147 150 151 147 145 136 136 135 126 126 113 118 122 134
298 294 287 280 275 270 251 230 221 215 213 208 196 183 186 180 182 176 165 153 148 143 147 140 139 135 137 136 139 148 151 155 152 145 138 142 142 140 131 132 143 137 148
296 291 287 282 278 272 252 238 226 218 213 204 197 197 188 183 171 166 155 144 145 137 140 141 142 139 135 130 126 128 126 123 133 138 136 144 147 140 130 129 145 146 150
288 283 279 279 276 271 261 239 228 218 212 202 195 195 176 158 145 145 141 140 135 133 129 133 134 135 137 134 133 131 127 131 131 133 130 136 142 149 143 135 143 140 148
280 277 277 276 270 268 262 242 229 216 200 191 182 156 147 146 145 143 143 139 135 130 131 134 139 137 134 129 132 129 137 133 134 135 133 136 141 145 144 151 151 146 154